Home > Time Zones > World Clock > Weather > Germany > Ulm > Past weeks

Flag for Germany Weather past 2 weeks in Ulm, Baden-Württemberg, Germany

Now
61 °F

Broken clouds.


Feels Like: 61 °F
Forecast: 44 / 66 °F
Wind: 2 mph from Northeast

Location: Laupheim Airport

Current Time: Aug 20, 2014 at 3:19:36 PM

Latest Report: Aug 20, 2014 at 2:20 PM


Visibility: N/A

Pressure: 30.04 "Hg

Humidity: 55%

Dew point: 45 °F

Location of UlmLocation

Historic Weather in Ulm — Graph

°F

Ulm temperature yesterday

Maximum temperature yesterday: 68 °F (at 4:20 PM)
Minimum temperature yesterday: 54 °F (at 3:20 AM)
Average temperature yesterday: 60 °F

Past Weeks' High & Low Weather Summary

 TemperatureHumidityPressure
High81 °F (Aug 10, 2:20 PM)100% (Aug 6, 4:20 AM)30.18 "Hg (Aug 6, 4:20 AM)
Low48 °F (Aug 17, 5:20 AM)41% (Aug 6, 5:20 PM)29.68 "Hg (Aug 13, 1:20 PM)
Average61 °F77%29.99 "Hg
* Reported Aug 5 1:20 PM — Aug 20 1:20 PM, Ulm, Weather by CustomWeather, © 2014

Note: Actual official high and low records may vary slightly from our data, if they occured in-between our weather recording intervals... More about our weather records

Advertising

Ulm weather history for previous 24 hours

 ConditionsComfort  
Time TempWeatherWind HumidityBarometerVisibility
1:20 PM
Aug 20
61 °FBroken clouds.5 mph59%30.04 "HgN/A
12:20 PM57 °FPartly sunny.3 mph67%30.04 "HgN/A
11:20 AM55 °FPartly sunny.2 mph77%30.07 "HgN/A
10:20 AM55 °FPartly sunny.1 mph77%30.07 "HgN/A
9:20 AM54 °FPartly sunny.2 mph82%30.04 "HgN/A
8:20 AM54 °FPartly sunny.3 mph82%30.04 "HgN/A
7:20 AM54 °FPartly sunny.2 mph88%30.04 "HgN/A
6:20 AM54 °FPassing clouds.2 mph82%30.04 "HgN/A
5:20 AM54 °FPassing clouds.1 mph77%30.04 "HgN/A
4:20 AM54 °FPassing clouds.1 mph77%30.04 "HgN/A
3:20 AM55 °FPassing clouds.2 mph72%30.01 "HgN/A
2:20 AM55 °FPassing clouds.2 mph72%30.01 "HgN/A
1:20 AM57 °FPartly cloudy.3 mph67%30.01 "HgN/A
12:20 AM57 °FPassing clouds.3 mph72%30.01 "HgN/A
11:20 PM
Aug 19
59 °FPassing clouds.3 mph63%30.01 "HgN/A
10:20 PM59 °FPassing clouds.2 mph63%30.01 "HgN/A
9:20 PM61 °FPartly sunny.3 mph59%29.98 "HgN/A
8:20 PM63 °FPartly sunny.3 mph56%29.95 "HgN/A
7:20 PM64 °FScattered clouds.7 mph49%29.95 "HgN/A
6:20 PM68 °FScattered clouds.13 mph43%29.92 "HgN/A
5:20 PM68 °FScattered clouds.9 mph43%29.92 "HgN/A
4:20 PM68 °FScattered clouds.14 mph46%29.92 "HgN/A
3:20 PM66 °FScattered clouds.13 mph52%29.92 "HgN/A
Weather by CustomWeather, © 2014

See weather overviewHow to use our weather pages